Regional Weather Roundup
Issued by NWS

Home | Current Version | Previous Version | Graphics & Text | Print | Product List | Glossary On
Versions: 1 2 3 4 5 6 7 8 9 10 11 12 13 14 15 16 17 18 19 20 21 22 23 24 25 26 27 28 29 30 31 32 33 34 35 36 37 38 39 40 41 42 43 44 45 46 47 48 49 50
000
ASUS45 KSLC 200510
RWRUT

UTAH REGIONAL WEATHER ROUNDUP
NATIONAL WEATHER SERVICE SALT LAKE CITY UT
1000 PM MST FRI JAN 19 2018

UTZ001>011-023>025-200600-

NORTHERN UTAH

CITY           SKY/WX    TMP DP  RH WIND       PRES   REMARKS
BRIGHAM CITY   CLOUDY    32  31  95 CALM      29.97S
HILL AFB       LGT SNOW  30  30  99 NW9       29.94R VSB 1   WCI  22
LOGAN          LGT SNOW  33  30  88 SW3       29.95S FOG
OGDEN          FLURRIES  32  31  96 NW10      29.95R WCI  24
SALT LAKE CITY LGT SNOW  34  32  92 NW10      29.96S VSB 1   WCI  26
TOOELE VALLEY  LGT SNOW  32  32 100 CALM      29.97S
WENDOVER       LGT SNOW  30  28  92 CALM      29.98S FOG
HEBER CITY     LGT SNOW  32  28  86 NE6       29.87R WCI  26
WEST JORDAN    CLOUDY    31  31 100 NW6       29.96S WCI  25

$$

UTZ011>015-024>027-200600-

CENTRAL/NORTHEAST UTAH

CITY           SKY/WX    TMP DP  RH WIND       PRES   REMARKS
PROVO AIRPORT  FLURRIES  33  31  92 NW17      29.94S WCI  22
MOAB/CANYONLAN CLOUDY    35  24  64 CALM      29.83F
DELTA          CLOUDY    34  28  80 N17       29.89S WCI  23
PRICE          PTCLDY    29  21  72 NE7       29.84F WCI  22
ROOSEVELT      CLEAR     27  19  74 W5        29.85S WCI  21
VERNAL         PTCLDY    26  17  68 W5        29.83S WCI  20

$$

UTZ013>016-019>022-027-200600-

SOUTHERN UTAH

CITY           SKY/WX    TMP DP  RH WIND       PRES   REMARKS
BRYCE CANYON   MOCLDY    37  27  67 S9        29.91F WCI  30
CEDAR CITY     MOCLDY    48  28  46 S18       29.82S
MILFORD        CLOUDY    36  29  75 N23       29.84R WCI  24
ST GEORGE      CLOUDY    52  36  54 CALM      29.81S
HANKSVILLE     MOCLDY    39  19  45 NW5       29.86R
BLANDING         N/A     38  18  43 NE7       29.98S WCI  33

$$

REGIONAL REPORTS     COLORADO/ARIZONA

CITY           SKY/WX    TMP DP  RH WIND       PRES   REMARKS
CRAIG, CO      MOCLDY    30  24  78 E5        29.83R WCI  25
GRAND JUNCTION MOCLDY    35  21  56 CALM      29.85R
RIFLE, CO      PTCLDY    32  23  69 CALM      29.88R
MONTROSE, CO   PTCLDY    48  22  35 MISG      29.89F
CORTEZ, CO     CLEAR     28  20  71 E7        29.95F WCI  21
COLORADO CITY    N/A     43  32  65 SE6       29.90S
PAGE, AZ       MOCLDY    46  24  42 SW3       29.84S
GRAND CANYON   PTCLDY    40  21  46 S9        29.96S WCI  34
KINGMAN, AZ    MOCLDY    58  29  33 S13G23    29.85S
FLAGSTAFF, AZ  CLEAR     34  16  47 W3        30.00S

$$

REGIONAL REPORTS    NEVADA/IDAHO/WYOMING

CITY           SKY/WX    TMP DP  RH WIND       PRES   REMARKS
LAS VEGAS, NV  MOCLDY    61  37  41 S8        29.77F
ELY, NY        SNOW      25  23  92 N9        29.90S VSB 1/2 WCI  15
ELKO, NV       CLOUDY    28  26  92 VRB3      29.93R
POCATELLO, ID  CLOUDY    33  26  75 SW13      29.92S WCI  24
BURLEY, ID     CLOUDY    34  25  69 W13       29.93S WCI  25
EVANSTON, WY   FOG       24  23  96 N8        29.88S VSB 1   WCI  15
ROCK SPRINGS,  LGT SNOW  30  26  85 NW13      29.83R FOG     WCI  20

$$



USA.gov is the U.S. government's official web portal to all federal, state and local government web resources and services.